Torna al catalogo

ONEWEB-0394

AttivoComunicazioniPO
NORAD 50474·PAYLOAD·🇬🇧 United Kingdom

Lanciato Dec 27, 2021 da Baikonur Cosmodrome

Loading…

Prossimi Passaggi (prossime 24 ore)

TLE

AggiornatoSource: CelesTrak SupGP

Epoca: Sep 14, 2026, 20:46 UTC

1 50474C 21132F   26257.86542083 -.00000357  00000+0 -90743-3 0  2576
2 50474  87.9167 317.6284 0002111 100.4715 285.2257 13.18685136    18

Traccia ONEWEB-0394 in tempo reale con AllMySat

Download on the App Store